GFSSE_sfc_dewp_000.txt.gz
Dewpoint
67 73 79 78 79 79 78 78 78 78 78 77 77 77 76 76 76 77 77 77 77 76 75 74 74 73 73 74 74 75 75 76 75 75 75 75 74 74 75 74 74 70 73
70 73 79 79 78 78 78 78 79 79 78 78 77 77 76 77 76 76 77 76 75 75 75 74 74 74 73 74 75 74 76 76 76 75 75 75 74 73 73 72 74 72 73
69 74 76 79 78 79 79 78 79 79 78 77 77 77 76 76 76 75 76 76 75 74 74 74 73 74 74 74 75 74 76 77 77 76 75 71 71 73 73 74 74 73 73
70 73 75 79 79 79 79 79 79 78 77 77 77 77 76 76 75 76 75 75 74 74 74 73 73 73 73 74 75 75 75 76 76 75 73 69 68 74 74 74 74 73 73
71 72 76 79 80 79 79 79 79 78 78 77 76 76 76 76 75 75 75 73 74 74 74 74 74 73 74 74 75 75 75 76 75 73 73 72 70 74 74 74 74 74 74
68 73 78 79 79 78 79 79 78 78 78 77 77 77 76 76 75 74 74 74 73 74 74 73 73 73 74 74 75 76 75 76 75 73 72 72 71 76 74 74 73 73 74
72 74 75 79 80 79 78 79 78 77 77 78 77 76 76 76 76 75 74 74 74 74 73 74 73 74 73 75 75 76 76 75 73 71 71 73 73 76 74 74 74 73 73
71 73 74 79 80 79 78 78 79 78 78 78 77 77 76 76 76 76 74 74 74 74 74 74 74 74 74 75 75 76 76 75 72 71 71 73 75 76 74 74 74 74 72
71 75 75 75 76 78 78 78 79 79 78 78 78 78 77 76 76 75 75 75 74 74 74 74 74 74 74 74 75 76 75 74 72 71 70 73 76 76 74 74 75 74 73
72 74 75 76 76 76 76 78 78 78 78 78 77 76 75 75 75 75 77 77 75 74 74 74 75 75 75 75 75 75 74 73 70 69 71 72 76 76 74 74 74 74 74
72 74 75 75 77 77 77 76 78 77 76 75 75 75 76 74 73 74 75 76 74 74 74 74 75 75 75 74 75 75 73 69 67 71 71 75 76 76 74 75 75 75 74
69 73 72 74 75 75 76 76 75 74 74 75 76 76 75 73 76 74 74 74 73 73 74 74 75 75 75 72 72 73 71 68 68 73 73 75 75 76 76 76 75 75 74
71 71 74 73 74 74 75 74 75 74 73 74 74 75 76 75 75 73 76 75 74 74 72 74 74 73 72 73 73 71 70 73 72 71 71 76 75 75 75 76 75 75 74
69 69 73 74 75 75 76 72 74 73 73 72 73 74 73 72 73 74 75 76 76 75 75 75 75 74 73 73 72 73 72 73 72 73 74 75 76 75 76 75 75 75 75
67 69 72 75 76 75 72 73 73 74 72 73 73 72 71 71 72 73 73 74 75 76 77 74 74 74 74 73 74 72 72 72 71 74 74 74 76 76 75 75 74 74 75
67 69 73 74 76 75 75 74 74 74 74 73 74 73 72 72 74 74 73 74 74 76 75 75 74 73 73 74 73 73 72 73 73 73 73 74 74 76 76 76 75 74 74
68 70 72 74 75 76 76 75 75 73 73 72 73 74 72 73 73 73 73 71 73 76 75 75 74 74 74 74 73 73 73 71 73 72 74 75 73 75 76 76 75 75 74
70 72 73 70 74 76 76 76 74 73 73 72 71 71 73 73 73 74 72 71 72 74 75 74 73 73 73 73 73 73 73 73 72 72 73 73 73 72 75 76 76 75 75
73 73 73 74 74 75 76 75 74 74 73 72 71 70 73 72 73 73 72 71 73 74 74 74 71 72 72 72 72 73 73 73 73 69 72 72 72 73 74 75 75 74 75
71 73 74 74 75 76 75 75 75 71 70 71 70 71 71 71 71 72 72 72 73 71 73 74 72 71 71 70 71 72 71 73 74 74 72 70 73 73 73 73 73 73 74
70 73 74 74 76 76 76 74 73 71 72 71 71 72 72 71 71 72 70 72 73 72 72 73 73 71 71 71 70 70 69 71 72 73 73 72 71 73 73 73 73 73 72
70 72 73 74 75 75 76 75 74 74 73 71 73 72 70 70 70 71 71 71 72 71 72 72 72 71 72 71 68 68 65 68 69 70 73 72 71 72 73 73 72 72 72
71 72 73 74 74 75 74 75 74 74 71 69 69 71 71 70 70 71 71 72 72 73 71 72 72 70 70 71 71 67 64 65 68 71 71 71 71 71 72 72 72 72 71
69 71 73 74 75 74 73 73 72 70 66 68 69 71 70 70 70 70 71 71 73 72 71 72 71 69 69 69 69 70 69 70 65 65 69 71 72 71 71 72 71 72 72
68 70 72 74 75 74 72 72 72 67 69 71 69 69 71 71 71 69 70 71 72 73 72 71 71 70 70 68 67 67 68 69 69 65 64 67 70 70 71 71 71 72 72
67 68 71 74 74 72 71 70 71 69 69 70 70 69 70 71 72 71 70 71 72 72 71 71 71 71 70 69 68 68 67 66 67 66 65 66 66 68 69 69 70 70 70

GFSSE_sfc_dewp_003.txt.gz
Dewpoint
73 77 79 79 80 79 79 79 78 78 78 78 78 78 78 78 78 78 77 77 77 76 75 74 74 75 75 74 75 75 75 76 75 75 75 75 74 74 74 74 73 70 72
74 77 79 79 79 79 79 79 79 79 78 78 78 78 77 77 77 77 77 77 76 76 75 75 74 75 75 75 75 76 76 77 76 75 75 75 74 74 73 73 73 72 73
74 77 77 79 79 79 79 80 79 79 78 77 77 77 77 77 76 76 76 75 75 75 75 74 75 74 75 75 74 76 76 76 76 76 75 73 72 74 74 74 74 73 73
75 76 77 79 79 79 79 79 79 79 78 78 77 77 77 76 77 76 76 75 75 74 74 74 74 74 74 75 75 75 76 75 75 75 73 72 71 74 74 74 74 73 73
75 77 78 80 80 80 80 80 79 79 78 78 77 77 76 76 76 76 75 76 75 75 74 74 73 74 74 75 75 75 76 75 75 73 73 71 72 74 74 74 74 74 72
75 77 79 80 80 80 80 80 79 79 77 77 78 77 76 76 76 76 75 75 75 75 74 74 73 74 74 74 75 74 76 74 73 73 72 73 73 75 74 74 73 74 73
76 77 77 80 80 79 79 79 79 78 78 77 78 77 77 77 77 77 75 75 75 75 75 74 73 74 74 75 75 75 76 74 72 72 72 73 74 76 75 74 73 74 73
74 76 77 80 80 80 79 79 79 78 78 78 78 78 77 77 77 77 76 75 75 75 75 75 74 74 74 75 75 76 75 75 72 72 72 73 75 75 74 74 74 73 73
74 75 77 78 78 79 79 79 79 79 78 78 79 78 78 77 76 76 77 76 75 75 75 75 75 75 75 74 75 76 75 74 73 73 72 72 76 76 75 74 75 73 74
74 74 75 75 77 77 77 80 80 79 79 78 78 77 77 76 75 75 77 77 75 74 74 74 75 75 76 77 75 75 74 74 72 72 73 73 76 76 75 74 74 74 74
73 73 74 75 75 76 77 77 79 79 78 77 76 76 76 75 74 74 76 76 75 74 74 74 75 75 75 75 75 75 75 72 71 72 73 74 76 75 74 75 75 75 74
72 73 73 74 75 75 77 75 75 75 74 74 74 74 75 73 74 75 75 75 74 73 74 75 76 75 75 73 73 74 73 72 71 73 73 74 76 76 75 76 75 75 74
70 72 73 74 73 73 74 73 74 73 72 73 72 73 74 74 73 73 74 75 73 74 73 74 75 75 73 74 73 72 72 72 73 73 72 75 75 76 75 75 75 74 74
69 71 72 72 73 73 72 71 71 73 73 72 71 72 72 72 72 72 73 73 73 74 73 73 74 73 73 73 73 72 71 72 72 73 73 75 75 76 75 75 75 74 74
68 71 72 72 72 72 68 66 64 70 72 72 72 72 71 70 69 70 71 72 72 73 72 73 72 72 72 72 72 73 73 72 72 73 73 74 75 76 76 74 74 74 74
68 71 73 73 73 70 68 63 61 68 72 72 72 71 70 69 70 71 71 70 71 71 72 72 72 72 71 72 72 72 72 72 72 72 73 72 74 76 76 75 75 74 74
68 71 72 73 73 72 71 68 65 72 72 70 68 70 70 70 71 70 70 70 70 72 72 71 72 71 71 72 72 72 72 73 72 72 73 73 73 75 76 76 75 75 75
69 70 72 73 73 73 73 73 72 72 71 71 71 70 71 70 70 71 70 69 70 72 72 71 71 71 70 71 70 72 72 72 73 72 73 72 72 72 75 76 76 75 75
70 71 71 72 73 74 73 72 71 71 71 72 71 71 71 71 71 70 70 70 69 70 70 71 70 70 69 70 70 70 71 71 71 72 72 72 72 73 74 75 76 76 75
71 72 72 72 73 73 73 72 71 68 68 68 69 70 69 71 71 70 70 70 70 70 70 70 68 68 69 69 71 70 70 71 71 70 71 72 72 72 73 72 74 75 75
71 71 72 72 72 72 72 69 69 67 68 68 68 68 69 69 69 69 69 70 69 69 69 69 69 68 69 70 68 67 68 69 70 71 71 70 71 72 73 73 73 73 74
70 71 71 71 72 72 71 70 68 68 68 68 68 69 69 68 68 69 69 69 69 69 69 69 69 67 68 69 65 66 62 64 68 70 71 70 70 72 72 72 72 72 72
70 71 70 71 71 71 70 69 68 67 66 66 67 67 68 68 68 68 68 69 69 69 69 69 69 67 66 69 68 65 61 60 65 68 69 69 70 70 71 72 72 72 71
70 71 71 71 71 70 70 68 66 66 64 65 66 66 67 69 68 68 68 69 69 69 68 68 69 67 67 66 67 69 67 66 63 62 67 69 70 69 70 70 71 71 72
70 70 66 72 71 70 70 68 66 65 65 66 66 65 66 67 68 69 68 68 69 69 69 69 68 67 66 66 64 65 66 67 67 64 62 64 68 69 69 70 70 71 72
70 71 67 71 70 68 67 66 66 65 66 65 65 66 66 67 67 69 68 68 68 69 68 69 69 67 67 66 66 66 66 65 64 64 62 62 63 66 68 69 69 69 70

GFSSE_sfc_dewp_006.txt.gz
Dewpoint
75 77 79 79 79 79 78 78 78 78 78 78 79 79 78 77 78 78 78 77 76 75 74 75 75 75 75 74 75 75 75 75 75 74 74 74 74 74 74 73 73 69 72
75 77 79 79 79 79 79 79 78 78 78 78 78 78 78 78 77 77 77 77 75 75 75 75 75 75 75 75 75 75 75 76 76 75 74 74 75 74 73 73 72 71 72
75 77 78 79 79 79 79 79 79 78 77 77 78 77 77 78 77 76 76 76 76 75 75 75 74 75 75 74 75 75 75 76 76 76 75 73 72 73 73 73 73 73 72
76 77 77 79 79 79 79 79 79 78 77 77 77 77 77 77 77 76 75 75 75 75 74 74 74 74 75 75 75 76 75 75 75 75 73 72 71 74 73 73 73 73 73
76 77 77 79 79 79 80 79 79 78 78 78 77 76 76 76 76 76 75 75 75 74 74 74 74 74 75 75 74 76 75 75 75 73 72 71 72 73 74 73 73 73 73
76 77 79 79 79 80 80 79 79 78 78 78 77 76 75 75 76 76 76 75 75 74 74 74 73 74 74 75 75 76 76 74 73 72 72 73 73 74 74 73 73 71 73
76 77 78 79 79 80 80 79 79 78 77 78 77 76 75 75 76 76 74 75 75 75 74 74 73 74 74 75 75 75 75 72 72 72 72 72 73 75 73 73 74 73 72
75 77 77 79 79 79 79 79 79 78 77 77 77 77 76 76 76 75 75 75 75 75 75 74 74 74 74 75 75 75 74 73 72 71 72 72 75 75 74 74 74 73 72
76 76 77 77 77 78 79 79 79 78 78 77 78 78 77 76 76 75 76 76 75 74 75 75 74 75 74 75 75 75 75 73 72 72 73 73 75 75 74 74 73 73 71
75 76 77 77 76 77 77 79 78 78 78 76 77 77 77 76 75 76 76 77 75 75 74 74 75 75 76 74 75 75 74 73 71 71 73 73 75 76 74 74 73 73 73
74 75 76 76 76 76 77 78 79 78 77 76 77 77 77 74 73 74 76 75 75 74 74 74 74 75 75 75 74 75 74 73 71 71 72 74 75 76 75 75 75 73 73
72 73 75 75 75 75 77 75 76 76 75 75 74 73 75 74 74 74 75 75 75 74 74 75 75 75 74 73 73 74 73 73 70 72 73 74 75 76 75 76 75 73 72
72 73 74 75 75 75 75 74 74 73 73 72 72 73 73 74 73 74 73 74 73 73 73 74 75 75 74 73 73 72 72 72 71 73 73 74 75 75 75 75 75 74 73
71 72 73 74 73 73 73 73 73 72 71 71 71 71 72 72 71 71 72 72 72 72 72 72 73 73 73 73 73 72 72 72 72 72 73 73 75 75 75 75 75 74 74
70 71 72 72 72 72 71 70 70 71 72 71 71 70 71 71 71 71 71 71 71 72 72 71 71 71 72 73 73 72 72 72 72 72 72 73 74 75 76 75 74 74 74
70 71 72 71 72 70 68 66 64 66 70 71 71 70 71 70 69 69 70 70 70 71 71 71 71 71 71 71 71 72 72 71 72 72 71 72 74 75 75 75 75 74 73
70 71 71 71 72 69 67 63 61 62 70 71 69 71 70 69 68 69 70 69 70 70 70 71 71 71 70 71 71 71 71 71 71 72 72 71 71 75 76 76 75 75 75
70 71 72 72 72 70 69 69 64 68 71 70 69 66 70 69 70 70 69 69 69 70 70 70 69 70 70 70 70 71 71 71 71 72 71 71 72 71 75 75 76 75 75
70 71 72 73 72 71 72 71 71 71 70 70 70 70 70 70 70 69 70 69 69 70 69 70 69 69 68 69 70 70 70 71 72 72 71 72 72 71 71 75 75 75 75
70 71 71 72 72 72 72 71 70 69 69 70 70 70 70 71 70 69 68 69 69 68 68 69 68 68 68 68 70 70 70 70 70 70 71 71 72 72 72 72 74 75 75
70 70 71 71 72 71 70 68 67 67 67 68 68 68 70 69 71 70 69 68 68 68 68 69 67 66 66 68 66 66 68 69 70 70 70 71 71 71 72 72 72 73 73
70 70 71 71 71 70 70 69 68 67 67 67 66 68 69 69 69 68 68 67 68 68 67 68 67 67 66 68 64 63 62 63 67 69 70 70 70 71 71 71 71 72 72
62 69 71 70 70 70 69 68 67 67 66 65 65 66 67 68 68 68 68 67 67 68 68 68 68 66 65 67 66 63 60 59 63 67 69 69 70 69 70 71 71 71 71
63 69 71 70 70 70 69 67 65 65 64 64 64 65 66 66 67 68 67 68 68 68 67 68 68 67 66 65 66 68 65 64 61 59 65 68 69 69 69 70 71 71 71
66 68 68 70 70 69 68 66 65 63 64 65 65 64 65 65 66 67 68 67 68 68 67 68 67 66 66 65 64 64 64 65 64 62 61 63 67 69 69 70 70 70 71
70 67 68 70 69 67 66 65 64 63 62 63 63 64 65 65 65 67 68 67 68 68 68 68 68 66 66 65 64 64 64 63 63 63 62 63 63 64 68 69 69 70 70

GFSSE_sfc_dewp_009.txt.gz
Dewpoint
75 77 79 78 78 78 78 78 78 78 78 78 78 78 77 77 77 77 77 76 75 75 75 74 74 74 74 74 75 74 74 75 74 74 73 73 73 73 73 73 72 69 71
75 77 79 79 79 78 78 79 78 78 78 78 78 77 77 77 77 76 77 75 75 74 74 74 74 74 74 74 75 74 74 75 75 73 73 73 73 73 72 72 71 70 72
76 77 78 79 79 79 78 78 78 78 77 78 78 78 78 78 77 76 76 75 75 75 75 74 74 75 74 74 75 74 75 75 75 74 74 72 72 73 73 72 72 71 71
76 77 77 79 79 79 79 79 78 78 77 77 77 77 78 77 77 76 76 76 75 75 75 74 74 75 74 74 75 75 75 74 74 74 72 72 71 73 72 73 73 72 72
75 77 77 79 79 79 79 79 78 78 78 78 77 76 76 77 76 76 75 75 75 75 74 74 74 75 74 74 75 75 75 75 75 73 72 72 72 72 73 73 72 72 72
76 76 77 79 79 79 79 79 78 78 78 78 77 76 75 76 76 76 76 75 75 74 74 74 74 74 74 74 75 75 75 75 73 72 71 73 72 74 73 73 73 72 72
75 76 77 79 79 79 79 79 78 78 78 77 76 75 75 76 76 76 75 75 75 74 75 74 74 73 74 74 75 75 75 73 72 72 72 73 72 75 73 73 72 72 72
75 77 77 78 79 79 79 79 78 77 77 76 76 75 75 76 76 75 75 75 75 74 74 74 74 74 74 74 74 75 74 73 72 72 72 73 74 75 73 73 72 72 73
75 76 76 77 78 79 79 79 79 77 77 77 77 77 76 76 75 75 76 75 75 74 75 74 74 74 74 75 74 75 74 72 72 72 72 73 75 75 73 74 73 72 73
75 75 76 76 75 76 77 79 79 78 77 76 76 76 76 76 75 75 77 76 75 74 75 74 74 74 75 74 75 74 73 72 71 72 72 72 75 75 74 74 73 72 72
73 75 76 75 75 75 76 77 78 77 76 76 76 76 76 74 73 74 75 75 75 74 74 74 74 74 74 74 74 75 74 72 71 71 72 73 75 75 74 74 74 73 72
72 74 75 75 75 75 77 75 76 75 75 75 75 75 75 73 73 74 75 75 75 74 74 74 74 74 74 73 73 74 73 73 70 70 72 74 75 75 75 75 75 73 73
72 73 74 74 73 74 75 74 74 73 73 73 73 73 73 73 74 74 73 73 73 74 73 74 75 74 73 73 72 72 73 72 71 73 73 74 75 75 75 75 74 73 72
72 72 73 74 73 73 73 72 72 71 71 71 72 72 72 72 72 72 72 72 72 72 72 72 73 73 73 73 73 72 72 71 71 72 73 74 75 76 75 75 75 74 73
71 72 73 73 73 73 72 72 72 71 71 71 71 71 72 71 71 71 71 71 71 72 71 71 72 72 72 72 72 72 71 71 71 71 72 73 75 75 75 75 74 74 74
71 72 73 73 73 72 71 70 70 71 71 70 70 70 70 70 69 69 70 70 70 70 71 71 70 71 70 71 71 72 71 72 72 71 71 71 74 74 75 75 75 74 73
70 71 72 72 72 70 69 68 67 67 69 70 70 70 70 69 69 69 69 69 69 70 69 70 70 70 70 70 70 71 71 71 72 71 71 71 72 74 75 75 76 75 75
70 71 72 72 71 69 68 66 63 63 66 69 70 69 70 69 68 68 68 69 69 69 69 68 69 69 69 69 69 70 71 71 71 71 71 72 72 70 73 75 75 75 75
69 71 71 71 71 69 69 68 67 65 68 70 69 68 67 69 69 69 69 69 69 68 68 68 68 68 68 68 68 69 70 69 70 72 71 71 71 71 71 73 74 75 75
69 71 71 71 71 71 70 69 69 69 69 69 69 69 69 69 70 69 69 69 68 68 67 68 67 68 67 67 69 70 69 70 70 71 71 71 71 71 71 71 72 73 75
70 70 70 71 71 71 69 67 67 67 67 67 68 69 69 69 70 69 68 68 68 68 68 67 66 66 66 67 65 65 66 68 69 70 70 71 71 71 71 71 72 73 74
66 70 67 64 65 70 69 68 67 66 66 66 66 67 68 69 69 69 68 68 68 67 66 67 66 65 65 67 64 62 61 63 66 68 69 70 70 71 71 72 72 71 71
66 64 63 64 64 70 69 68 67 66 65 64 65 65 66 68 68 68 68 67 67 67 66 66 67 65 64 66 65 62 59 58 61 66 68 69 69 69 70 71 71 71 71
64 62 63 65 64 69 68 66 64 64 63 64 63 64 65 65 66 67 67 67 66 67 67 67 67 66 64 64 65 66 64 62 59 59 63 67 69 68 69 69 70 71 71
65 63 62 64 65 69 68 66 64 63 64 64 64 63 64 64 65 66 67 66 66 66 67 67 67 66 66 64 65 64 64 64 63 61 58 61 66 68 69 69 70 70 70
66 65 66 68 68 67 66 65 63 62 61 62 63 63 64 64 64 65 67 66 66 67 66 66 67 66 66 65 65 64 64 63 62 61 60 60 61 64 68 69 69 69 70

GFSSE_sfc_dewp_012.txt.gz
Dewpoint
74 75 78 78 77 77 77 77 78 78 78 78 78 78 78 78 77 77 76 76 75 75 75 74 73 74 74 74 74 74 74 74 73 74 74 73 74 73 73 72 70 68 72
75 76 78 78 78 77 77 77 78 78 78 78 78 78 78 77 76 76 76 75 75 75 74 74 74 73 74 74 74 74 75 75 75 73 72 73 73 73 72 71 70 70 70
75 76 77 78 78 78 78 78 77 77 77 77 77 77 77 77 76 75 75 75 74 74 74 74 74 73 74 74 74 74 74 75 75 74 73 73 72 73 72 72 71 72 71
76 77 77 78 78 78 78 78 78 77 77 77 77 77 77 77 77 76 75 75 75 75 75 74 75 74 74 75 75 74 74 74 74 74 73 72 70 73 72 72 71 71 72
76 77 77 79 79 78 78 78 78 77 77 77 77 76 77 77 76 76 76 75 75 75 75 74 74 74 74 75 75 75 75 75 74 73 73 73 74 72 73 72 72 71 71
76 76 77 79 78 78 78 78 78 78 78 77 76 76 76 76 76 75 75 75 74 75 74 74 74 74 74 75 75 75 75 74 74 72 73 73 73 73 73 72 73 72 71
75 75 77 78 79 79 78 77 77 78 78 77 76 75 76 76 76 76 75 75 75 74 74 74 74 73 74 74 75 75 75 73 72 73 73 74 73 74 73 73 72 72 70
75 76 77 78 79 79 78 77 77 77 77 76 76 75 76 77 76 75 75 75 75 75 74 74 74 74 74 73 75 75 75 73 72 72 73 73 74 74 73 73 71 73 72
75 76 77 77 77 78 78 78 77 77 77 77 76 77 76 76 76 74 75 75 75 75 74 74 74 74 74 74 75 74 74 73 72 73 72 74 75 75 73 73 72 73 73
75 75 75 76 76 77 78 78 78 77 76 76 76 76 76 76 75 74 77 76 75 74 75 74 74 74 75 75 74 74 73 73 72 72 73 74 76 74 74 74 73 73 73
74 74 74 75 75 75 76 77 77 77 76 75 75 76 75 75 74 75 75 75 74 74 74 74 74 75 75 74 75 74 73 73 72 73 72 73 75 74 74 74 74 72 73
72 74 75 75 74 75 76 76 76 75 75 75 75 75 76 75 74 75 76 75 74 74 74 74 74 74 74 74 75 74 74 73 71 72 74 74 75 75 74 75 75 73 72
72 73 74 74 74 74 75 75 75 75 75 75 75 75 75 74 74 75 75 75 75 75 74 75 75 75 74 74 74 73 74 73 72 72 73 74 75 75 75 75 75 74 73
72 73 74 74 73 74 74 73 73 73 72 73 72 72 73 73 73 74 74 74 73 74 73 74 75 74 74 73 73 73 73 73 72 73 74 75 74 75 75 75 74 74 73
71 72 73 73 73 73 73 73 72 72 72 71 71 72 72 72 72 72 73 73 73 73 73 73 73 73 73 73 73 73 72 72 72 73 73 75 75 75 76 75 75 74 73
71 72 73 73 72 72 72 72 72 72 72 71 71 71 72 71 72 71 71 71 71 72 72 73 72 72 72 73 72 73 72 73 72 72 72 73 74 74 74 75 75 74 74
71 72 72 73 73 72 71 71 71 71 71 71 71 71 70 71 70 70 71 71 71 72 72 72 71 71 71 71 71 72 72 72 72 72 72 72 73 74 75 75 75 75 75
70 71 72 73 72 71 70 70 69 68 68 69 71 71 71 70 70 70 70 70 71 71 71 71 71 70 70 71 71 71 72 72 72 72 72 71 72 71 73 74 75 74 75
70 71 71 72 71 71 70 69 68 67 66 67 69 70 69 70 70 69 69 69 70 70 70 70 69 70 69 70 70 70 71 72 71 72 72 72 72 72 71 73 73 73 74
69 68 68 68 68 70 69 69 69 69 68 68 69 70 70 69 69 70 70 69 70 69 69 69 69 69 69 69 69 70 70 71 70 72 72 71 72 72 72 72 73 73 74
67 67 68 67 66 66 69 68 69 69 69 69 69 70 70 70 69 69 69 69 69 69 69 69 69 68 68 69 68 67 68 69 71 71 72 71 72 71 72 73 72 73 72
66 65 65 67 66 66 68 69 69 68 68 68 67 68 68 69 69 70 69 68 68 69 68 68 68 67 67 68 66 65 64 66 69 70 71 71 71 72 72 72 72 73 73
62 62 65 66 65 66 68 69 68 68 67 66 66 66 67 68 68 69 69 68 68 69 68 68 68 68 66 67 67 65 62 62 64 68 69 70 71 71 72 72 72 72 73
64 64 66 65 65 65 69 68 67 66 65 65 65 66 66 67 67 68 68 68 68 68 68 68 69 68 68 66 67 67 66 65 63 64 66 69 71 70 71 72 72 72 72
64 64 62 64 65 66 69 68 66 65 65 65 65 64 65 66 66 66 68 68 67 68 68 68 68 68 68 67 67 67 66 66 65 64 62 64 68 70 70 70 71 72 72
65 65 66 65 67 68 68 66 65 64 63 64 64 64 65 65 66 66 67 67 68 68 68 68 68 68 68 68 67 67 67 66 66 65 64 63 63 65 66 70 70 70 72

GFSSE_sfc_dewp_015.txt.gz
Dewpoint
70 73 78 78 78 77 77 78 79 79 79 79 79 78 78 77 77 76 76 75 75 75 75 74 73 73 74 74 73 73 74 74 73 74 74 73 73 73 72 71 70 67 71
70 73 78 78 78 77 78 78 78 79 79 79 78 78 78 78 76 76 76 75 75 75 75 74 74 74 73 74 73 74 74 74 75 74 73 73 73 73 72 70 71 71 72
70 72 74 78 78 77 78 78 78 78 77 78 78 78 77 77 76 76 75 75 75 74 74 74 74 74 73 74 74 74 74 75 75 73 73 70 70 72 71 70 72 70 71
70 71 71 78 78 78 77 78 78 77 76 77 77 77 76 76 76 75 75 75 74 74 74 74 74 74 74 74 75 75 74 74 74 74 70 68 67 72 72 72 71 72 72
71 71 73 79 78 77 77 78 78 78 77 76 76 76 76 77 76 75 75 75 75 75 74 74 74 74 74 74 74 75 75 75 74 72 71 71 70 71 72 72 71 71 71
72 71 77 79 78 77 77 77 77 77 77 77 76 76 77 76 75 75 74 74 74 74 74 74 74 74 73 74 75 75 75 74 74 70 71 71 71 73 73 72 71 71 71
73 72 75 79 78 78 78 78 77 77 77 76 76 76 76 76 76 75 75 75 74 74 74 73 74 74 74 75 75 75 75 74 70 71 71 70 71 74 73 72 72 71 72
72 72 74 77 78 78 78 77 77 77 76 76 75 75 76 76 76 76 75 75 74 74 74 74 73 74 74 74 75 75 75 74 71 70 70 71 73 74 73 73 73 71 72
73 74 75 75 77 78 78 77 77 77 76 76 76 76 76 76 75 75 74 75 75 74 74 73 74 74 74 74 75 75 75 73 70 71 70 69 75 74 73 73 73 72 72
74 75 75 76 76 77 76 78 78 77 76 76 76 75 75 75 75 74 76 75 75 74 74 74 74 75 75 75 75 74 74 73 70 71 71 68 75 74 74 73 72 73 73
73 74 75 76 77 78 78 78 78 76 76 76 76 75 75 72 72 72 75 75 74 73 74 74 74 75 75 75 74 75 73 70 70 70 69 74 76 74 74 74 74 74 73
71 73 74 75 75 75 75 77 77 76 76 76 76 76 73 73 74 72 74 75 74 74 74 74 73 74 74 75 71 73 70 71 70 71 70 74 75 74 74 75 75 73 73
72 72 75 75 75 75 75 76 76 74 75 76 76 78 77 77 75 72 73 72 73 74 72 72 72 73 72 74 75 72 73 72 69 70 71 74 75 74 74 74 75 73 72
72 71 73 75 76 76 76 75 77 77 78 77 77 76 76 76 75 74 72 74 75 73 74 74 73 73 73 73 72 73 73 73 70 70 71 74 75 75 75 74 74 74 73
72 73 73 75 75 76 76 75 77 75 74 77 77 76 72 70 71 76 74 73 73 73 73 73 73 74 74 74 74 73 72 72 72 69 69 74 75 75 75 75 74 74 74
72 73 74 74 75 76 75 76 76 77 76 74 74 76 73 71 72 75 75 75 75 74 72 72 72 72 73 73 72 73 73 72 73 71 67 70 75 75 75 75 74 75 74
72 73 73 74 74 75 75 76 77 76 74 73 72 74 73 75 75 75 74 72 72 76 75 73 73 73 72 72 72 73 72 73 72 72 70 70 71 74 74 74 74 74 75
73 73 73 73 74 74 75 74 73 72 72 71 72 72 73 73 73 74 75 70 71 74 75 73 72 70 70 70 71 74 75 73 73 73 71 70 71 69 72 74 73 74 74
71 70 70 72 73 73 73 74 74 74 72 72 72 72 74 73 73 72 70 73 74 70 70 70 73 73 69 68 69 72 74 74 73 72 72 71 71 71 69 73 73 73 73
69 69 69 70 69 72 73 73 73 72 72 70 70 70 71 71 72 73 71 71 71 68 69 69 70 69 69 68 67 68 73 72 74 72 72 71 70 71 71 72 71 71 73
67 68 69 69 69 70 71 72 72 71 72 72 73 73 72 72 73 73 71 71 71 70 70 72 72 70 68 69 67 67 69 71 71 71 71 71 71 71 72 72 71 70 70
66 68 67 69 69 68 70 71 72 72 72 71 72 72 71 71 71 71 71 71 72 71 71 71 71 70 67 68 65 68 65 67 69 70 71 70 71 71 71 72 72 73 72
64 66 68 68 68 68 68 71 71 72 72 70 70 69 70 69 70 71 70 71 72 70 69 69 71 69 67 68 70 69 66 59 68 69 71 70 71 71 71 72 73 73 73
64 64 68 68 68 67 69 71 70 70 68 68 66 67 68 69 68 69 70 70 71 70 68 68 71 72 72 67 68 68 68 66 68 65 67 69 71 71 72 71 71 72 73
66 66 65 66 67 67 70 72 70 69 67 67 67 68 69 69 69 68 69 70 71 70 70 68 69 72 70 70 68 66 68 70 68 64 61 64 68 68 69 70 70 71 72
65 65 64 66 68 70 71 70 68 67 68 66 67 66 66 66 68 70 69 70 70 70 70 71 70 71 70 70 69 67 66 67 69 69 67 66 62 64 66 68 69 69 70

GFSSE_sfc_dewp_021.txt.gz
Dewpoint
64 70 79 78 78 79 79 79 79 78 77 77 76 76 76 76 76 75 75 76 75 75 74 73 73 73 73 73 73 74 73 74 74 74 74 73 73 73 72 72 73 68 72
67 71 78 78 78 78 78 79 79 78 78 77 77 76 76 76 76 75 75 75 75 75 74 73 73 73 74 73 74 75 74 74 74 74 74 73 73 71 70 69 73 70 71
66 70 72 78 79 78 78 79 79 79 78 77 77 76 76 76 76 75 75 75 75 75 74 74 73 74 74 74 74 74 74 74 74 74 74 68 69 70 72 73 72 72 71
66 68 71 78 79 78 78 78 78 78 77 77 77 76 76 76 76 75 75 75 74 74 74 74 74 74 74 74 75 74 74 74 73 74 71 67 64 71 72 70 71 72 72
66 67 73 78 78 78 78 78 78 78 77 77 77 76 76 76 75 75 75 74 74 74 74 74 74 74 73 74 75 74 74 73 73 73 71 71 67 70 73 70 72 71 71
65 68 76 78 77 77 77 77 77 77 77 77 76 76 75 75 75 75 75 74 74 74 74 73 74 74 74 74 74 74 74 74 74 71 70 69 71 73 73 72 70 72 72
64 72 73 78 78 78 77 77 77 76 76 76 76 75 76 76 75 75 74 74 73 73 73 73 74 74 74 74 74 74 75 74 71 70 70 68 71 74 72 71 71 72 72
64 69 72 78 78 77 76 77 77 76 76 76 76 76 76 75 75 75 74 73 73 73 73 72 73 73 74 75 75 75 74 74 70 67 68 70 74 75 73 72 71 72 71
65 69 71 73 75 77 76 76 76 76 76 76 76 76 76 75 75 74 74 74 73 73 73 73 73 74 74 75 75 75 74 74 71 68 65 71 75 75 73 73 72 73 72
70 69 71 73 73 74 74 77 76 76 75 75 75 75 75 74 74 75 74 75 73 73 73 73 73 75 74 74 75 75 74 74 68 70 68 70 75 74 74 73 73 71 72
69 68 73 73 74 75 74 74 76 76 76 76 75 75 74 70 72 74 73 73 73 73 73 73 73 74 75 74 74 75 74 67 66 70 73 75 75 74 74 74 74 72 73
66 66 69 71 73 74 76 77 73 73 72 73 73 75 73 73 74 71 73 74 73 73 73 73 73 73 72 69 71 73 69 66 68 67 71 74 75 74 74 74 74 75 73
68 68 70 71 74 74 73 77 77 77 77 75 75 75 73 73 73 70 74 71 70 73 68 71 71 69 70 68 69 70 69 67 69 71 71 75 75 74 74 74 75 74 74
68 69 70 75 72 73 74 71 76 72 73 76 78 76 76 73 73 72 69 71 73 77 71 71 70 69 71 72 73 70 72 69 66 66 73 75 75 75 74 75 74 74 73
65 66 71 75 74 75 75 73 73 75 74 74 72 74 70 69 72 67 65 64 69 71 75 74 73 71 71 71 71 71 70 70 70 68 67 75 75 75 75 75 75 74 73
65 67 69 71 74 74 76 75 78 72 71 70 71 71 73 70 71 68 68 66 68 70 73 73 71 74 69 69 71 71 71 73 71 71 68 69 75 75 75 75 75 74 72
66 68 70 72 72 74 74 74 73 69 68 72 71 74 72 73 72 72 68 70 70 71 70 70 72 71 72 72 69 70 69 72 72 71 72 70 72 75 75 75 75 75 74
68 69 71 69 72 73 75 73 70 70 69 73 73 75 73 74 74 74 70 69 70 70 69 68 71 67 71 72 72 71 70 69 70 73 75 70 67 69 74 75 74 75 71
70 72 73 72 71 75 74 72 72 72 70 67 65 67 73 72 71 72 68 70 72 69 70 74 70 71 72 67 67 71 71 70 69 68 71 71 72 71 71 73 73 74 71
71 73 72 70 72 75 75 73 69 67 73 70 71 72 74 73 72 76 74 71 76 75 71 70 71 69 66 64 61 64 70 68 68 68 70 74 75 73 70 75 75 73 73
72 73 72 72 73 73 73 73 71 68 74 73 72 73 72 72 72 75 76 75 75 74 71 73 72 71 65 66 70 65 63 64 69 69 69 69 73 72 71 75 75 74 72
72 71 72 72 71 71 73 73 74 71 70 73 73 72 73 72 72 73 75 74 75 74 74 73 74 74 71 74 65 62 58 57 62 67 69 73 71 74 71 74 74 74 73
70 70 71 71 70 70 72 72 76 73 73 73 72 66 67 69 70 72 72 74 74 76 75 72 73 71 70 73 71 62 57 53 55 69 71 69 71 76 74 75 73 73 74
68 69 69 72 70 70 70 69 72 73 69 66 65 66 68 69 69 70 71 70 73 75 73 73 74 71 72 70 73 66 69 65 63 62 72 73 75 74 75 73 72 73 75
65 66 68 70 70 71 71 73 73 73 65 66 65 68 72 72 69 69 70 70 71 74 74 73 73 73 72 72 70 72 69 62 66 64 64 67 69 67 72 71 72 72 73
66 66 67 70 71 71 71 72 72 68 67 66 67 65 63 63 67 70 69 71 73 73 72 74 73 72 72 68 72 71 71 66 62 64 69 68 62 67 68 72 71 71 73

GFSSE_sfc_dewp_024.txt.gz
Dewpoint
68 73 78 79 79 79 79 79 79 78 78 77 77 77 77 76 75 75 76 77 76 75 74 74 73 73 73 74 74 72 74 74 74 74 74 74 73 73 73 72 73 69 72
69 72 79 79 79 79 79 79 79 78 78 78 77 77 77 77 76 75 75 75 75 75 74 73 73 73 74 74 74 74 75 74 75 74 74 73 72 71 72 71 74 69 70
69 72 73 79 79 79 79 79 79 78 78 78 77 77 77 76 76 75 75 75 75 75 74 73 74 74 74 74 74 74 74 75 76 74 74 70 69 73 73 72 74 71 72
69 69 72 79 79 79 79 79 79 78 78 78 78 77 77 76 75 75 75 75 75 75 74 74 74 74 74 75 74 75 74 74 74 74 73 66 65 73 72 73 73 72 71
67 69 75 79 79 78 79 79 79 79 78 78 77 76 76 76 75 75 75 74 75 74 74 74 74 74 74 75 74 76 75 74 74 72 73 72 67 72 70 72 71 72 72
66 72 77 79 78 78 78 79 79 78 78 78 77 76 76 75 75 75 75 74 74 74 74 74 74 74 74 75 74 76 75 74 73 72 72 72 70 73 72 71 72 72 73
71 73 74 78 78 78 78 78 78 78 77 77 76 75 75 75 75 75 75 74 73 74 74 74 75 74 74 75 74 76 75 74 71 72 70 71 72 75 72 73 73 72 72
71 71 73 78 78 77 77 77 77 76 76 76 75 76 76 76 75 75 74 74 74 73 72 73 74 74 75 75 75 75 76 74 70 71 69 73 74 75 73 72 72 72 72
71 72 73 74 76 76 76 77 76 76 75 76 76 76 75 75 75 75 75 74 73 74 73 73 74 74 75 75 75 75 75 74 71 72 70 72 75 75 74 72 72 72 72
70 71 72 74 75 75 75 77 77 77 76 76 76 76 75 75 75 75 76 76 74 73 73 73 73 75 75 75 75 75 74 74 70 70 72 72 75 75 73 73 72 73 73
70 72 72 74 75 76 76 75 77 76 75 75 75 75 75 73 73 73 74 76 74 73 73 73 74 74 75 74 75 75 74 71 67 71 74 74 74 75 74 75 74 73 73
67 71 70 73 74 75 76 77 75 75 74 75 75 76 75 75 75 72 74 76 74 74 74 75 75 74 74 71 72 74 72 69 68 72 72 71 74 75 75 75 75 74 73
70 71 72 73 75 75 76 77 77 76 77 75 74 75 76 76 75 74 76 73 74 74 71 73 73 72 71 70 71 72 71 70 70 71 73 74 75 75 75 75 75 75 74
69 69 72 75 76 76 75 74 74 74 75 75 74 75 75 76 76 76 74 75 74 75 74 74 72 73 72 71 72 72 72 71 70 71 73 74 74 75 75 75 75 74 75
68 71 72 75 76 77 76 74 74 74 70 68 70 75 76 74 75 75 73 71 71 74 71 70 68 68 71 72 74 72 70 71 71 72 74 75 74 75 75 75 75 74 74
68 71 74 75 77 78 77 78 78 72 68 69 67 73 75 73 76 75 73 72 71 72 73 72 70 69 69 69 73 72 73 73 73 72 70 73 74 75 75 76 76 75 73
68 69 72 75 75 77 77 78 77 75 72 67 68 73 75 75 75 75 72 71 71 73 71 68 70 67 67 67 71 73 72 72 72 73 73 73 74 75 74 75 76 76 75
70 72 74 70 74 76 76 77 75 74 76 73 75 72 75 75 76 75 74 74 73 72 71 68 66 67 67 67 71 71 72 72 72 74 74 73 74 71 74 75 75 75 75
73 75 75 74 73 76 76 77 76 78 76 74 76 75 75 74 74 75 72 74 75 72 70 68 67 69 70 70 71 71 72 72 72 71 73 74 73 73 73 73 74 74 75
72 75 75 74 76 76 72 72 74 75 75 74 73 74 71 75 75 75 74 74 73 74 72 72 72 71 71 69 66 65 71 71 72 72 72 73 74 74 73 73 72 72 74
74 75 75 74 76 75 70 69 71 74 75 74 70 70 67 65 73 75 74 74 74 73 72 73 72 69 68 70 69 69 70 71 70 69 72 71 72 72 73 73 74 72 73
73 74 75 75 73 74 70 71 71 74 75 75 75 73 72 72 74 75 74 73 73 72 71 72 71 70 70 71 69 69 65 64 65 69 70 71 71 72 72 73 74 72 72
72 73 74 74 73 72 72 72 72 74 73 74 73 74 73 72 73 74 73 74 73 73 72 71 71 70 68 69 71 68 65 62 64 69 70 72 71 73 73 74 73 72 73
70 72 74 72 72 72 72 72 73 72 71 73 73 74 73 73 72 72 73 73 73 73 72 72 72 71 70 69 70 68 68 69 65 63 69 70 72 73 73 73 73 72 73
69 69 72 73 73 73 73 74 75 73 73 73 72 73 74 74 72 70 72 72 73 73 73 72 71 71 71 69 69 68 68 68 69 66 64 67 71 71 71 72 72 71 72
67 67 69 72 73 74 74 74 75 73 73 71 71 71 68 71 73 72 72 72 73 72 72 72 72 72 70 69 70 69 68 66 66 66 66 66 65 67 70 72 72 71 72

GFSSE_sfc_dewp_027.txt.gz
Dewpoint
72 76 79 79 80 80 79 79 78 78 77 77 77 77 77 77 77 77 77 77 76 75 75 73 73 74 74 74 73 73 74 74 74 74 74 73 73 73 73 73 72 70 73
73 76 79 79 79 80 79 79 79 78 77 77 77 76 76 77 76 76 77 77 75 75 74 74 73 74 74 75 73 75 74 74 74 74 73 73 72 72 72 73 71 69 72
72 75 77 79 79 80 79 79 79 78 77 77 77 77 76 76 76 75 75 75 75 74 74 74 74 74 74 74 74 75 74 74 75 74 73 70 72 73 74 72 72 71 72
72 75 77 79 79 79 79 79 79 78 77 77 77 77 77 76 76 75 75 75 75 75 75 74 74 74 74 75 74 74 74 74 74 73 71 68 70 74 74 73 71 72 72
71 75 77 79 79 79 79 79 79 78 78 77 77 76 76 76 75 75 75 75 75 74 74 74 74 74 74 75 75 75 74 75 73 73 72 69 70 71 72 73 72 72 72
74 76 79 79 79 79 79 79 79 79 78 78 77 76 76 75 75 75 75 74 75 74 74 74 74 74 74 75 75 75 75 74 73 72 71 71 70 72 72 71 73 73 72
74 76 77 79 79 79 79 79 79 79 78 78 77 76 75 76 75 75 75 74 74 74 74 74 74 74 74 74 74 76 74 73 71 72 71 69 71 74 72 73 73 73 71
73 74 75 78 79 78 78 78 78 77 77 76 76 76 76 75 76 76 75 74 74 73 73 74 74 73 74 74 74 76 74 73 71 71 71 71 73 75 73 73 73 72 72
73 73 75 76 76 77 77 77 77 76 76 76 77 77 77 76 75 75 76 76 74 74 73 73 74 74 74 75 75 75 74 73 71 72 71 72 74 75 73 73 73 72 73
71 73 73 74 75 75 76 78 77 77 76 76 76 76 76 75 75 75 76 76 75 74 73 73 73 75 75 75 75 75 74 74 72 72 72 72 74 75 73 72 73 73 72
70 71 73 73 74 74 75 76 78 76 76 75 75 76 76 74 74 74 75 75 74 74 74 74 73 75 75 75 75 75 75 73 71 72 72 74 75 75 74 73 74 73 73
69 70 72 72 73 74 75 75 75 75 74 74 74 73 74 73 73 74 74 75 74 73 74 75 76 75 74 73 73 74 73 72 69 71 71 74 75 76 76 75 75 74 73
70 70 72 72 73 74 75 75 75 74 75 75 75 75 75 74 73 73 73 74 74 74 72 74 74 73 72 71 71 72 72 71 69 72 70 73 75 76 75 76 76 74 74
70 70 71 73 74 73 74 74 73 74 74 73 73 73 72 73 72 72 73 73 73 73 72 71 70 69 67 69 69 72 71 70 70 73 72 72 74 76 76 75 76 75 74
68 70 72 73 73 74 74 73 70 69 72 71 69 72 72 72 72 72 69 69 68 72 70 68 68 68 67 67 68 68 72 70 71 72 72 75 74 74 76 76 75 74 75
68 70 73 73 73 74 73 72 70 70 71 70 67 65 70 72 71 71 68 68 68 70 68 67 66 67 67 67 68 67 68 71 71 71 71 72 75 74 75 76 75 75 74
69 71 72 73 73 73 72 72 72 71 69 68 67 66 66 72 72 71 70 69 68 70 70 69 68 67 65 67 66 68 70 71 72 72 71 72 73 74 74 75 76 76 75
70 71 72 72 74 73 73 73 73 72 71 69 67 70 70 73 72 72 72 71 70 69 68 66 67 65 64 65 67 68 69 71 72 72 72 72 73 71 74 74 75 75 76
70 72 71 71 72 72 72 72 72 72 72 73 73 71 71 72 72 72 72 72 71 71 68 65 65 64 66 66 67 67 70 70 71 72 71 72 71 73 72 73 74 74 75
73 72 72 71 71 71 71 71 71 70 72 70 71 68 68 67 69 70 71 72 70 70 69 67 65 65 66 68 70 70 69 65 68 70 71 71 71 72 73 72 72 72 75
73 73 71 71 70 69 68 67 67 68 70 70 69 67 65 66 66 67 71 70 70 69 69 69 69 68 68 68 68 65 68 69 69 68 70 71 71 71 71 72 72 72 72
72 73 73 71 70 68 67 67 68 70 71 72 71 70 69 69 67 71 70 70 70 69 68 69 69 67 67 68 65 63 62 64 67 70 69 71 71 71 71 72 72 72 71
71 72 71 71 70 69 68 71 69 70 70 69 69 70 70 71 71 69 68 69 69 69 68 68 68 67 66 68 68 65 62 59 63 66 68 70 69 71 71 73 72 72 71
71 72 71 71 70 70 69 67 69 68 67 68 69 69 68 69 69 69 69 69 69 69 68 69 69 68 66 65 66 68 68 67 61 60 65 67 69 70 71 70 71 71 71
70 71 70 70 70 69 68 68 69 68 69 69 68 68 68 68 69 69 70 70 69 69 69 69 68 68 67 66 66 66 65 66 67 63 60 63 68 69 70 71 71 70 71
68 72 70 70 69 70 70 70 70 68 67 67 67 67 66 68 69 69 70 70 69 69 68 69 68 68 67 67 68 67 65 64 64 64 62 61 62 64 67 70 70 69 70

GFSSE_sfc_dewp_030.txt.gz
Dewpoint
73 76 79 79 79 79 78 77 77 77 76 77 77 77 77 77 77 77 77 77 76 76 75 73 74 74 74 74 73 74 74 74 74 73 74 74 73 73 73 72 72 70 73
75 77 79 79 80 79 79 78 77 77 77 77 77 76 76 76 76 76 76 76 75 75 74 74 74 74 74 73 74 74 74 74 74 74 74 73 73 73 72 72 72 71 72
74 76 78 79 79 79 79 78 77 77 77 77 77 76 76 76 75 75 75 75 75 74 74 74 74 74 74 74 74 74 74 74 74 74 73 71 71 73 71 71 71 72 71
75 76 77 79 79 79 79 79 78 77 77 77 76 76 75 75 75 75 75 75 75 74 74 74 74 75 74 75 74 74 74 74 74 73 71 71 70 73 72 72 71 73 73
76 77 77 80 79 79 79 79 78 78 77 76 76 76 76 75 75 75 75 75 75 74 74 74 74 74 75 75 74 75 75 73 74 72 71 70 71 73 72 71 71 71 72
75 77 79 79 79 78 78 79 78 78 77 77 76 76 76 75 75 75 75 75 74 74 74 74 74 74 74 75 75 75 74 73 73 71 71 71 69 72 73 72 72 72 73
75 77 78 79 79 79 79 78 78 78 77 77 76 76 75 76 75 75 74 74 74 74 74 74 74 73 73 75 75 75 74 73 71 72 71 70 69 73 72 73 73 71 72
74 76 77 79 79 79 78 78 78 77 77 76 76 75 75 75 75 75 75 74 73 74 74 75 74 74 73 74 74 74 74 72 71 71 70 71 72 75 73 73 73 72 72
74 75 76 77 77 77 77 77 77 77 76 76 76 76 76 75 75 75 75 75 74 73 72 74 74 74 74 75 74 74 73 72 71 72 70 72 74 74 74 74 73 72 72
73 75 75 75 75 75 76 77 77 77 76 75 76 76 76 75 75 75 77 76 74 74 73 73 74 74 75 75 75 75 74 72 72 71 72 71 74 74 73 73 73 73 73
72 73 74 74 75 75 75 75 77 76 75 76 76 75 76 74 74 75 75 75 74 73 73 73 73 75 75 75 75 75 74 73 71 71 72 74 75 75 73 73 73 72 72
70 72 73 73 73 74 75 75 75 74 74 74 74 73 74 73 73 74 75 73 74 74 74 74 74 74 74 73 72 74 73 72 69 71 72 73 74 76 75 74 75 73 73
69 71 72 72 73 74 74 74 74 74 74 74 74 74 74 74 73 73 73 73 73 74 72 74 74 74 72 72 72 72 72 72 70 71 71 74 74 75 75 75 75 74 73
69 70 72 72 73 74 75 75 75 75 74 74 73 73 73 72 70 71 73 72 72 72 72 72 72 70 69 70 69 71 72 71 70 72 71 73 74 75 76 75 75 73 74
69 70 71 73 73 73 74 73 72 71 73 73 72 73 72 70 70 71 71 71 72 72 71 69 69 70 68 68 69 69 69 71 71 72 72 72 74 74 75 75 75 74 73
69 70 72 73 73 73 73 71 69 67 70 71 69 70 71 71 70 71 68 68 68 70 69 68 68 67 67 67 68 67 67 68 71 71 71 72 74 74 74 76 76 75 74
68 70 72 73 73 72 71 71 71 69 70 69 69 68 66 69 71 70 69 68 68 67 69 68 67 66 66 66 67 67 68 69 71 72 71 72 72 74 74 74 76 76 75
70 71 72 73 72 72 72 72 72 72 70 70 69 68 68 68 72 71 71 70 70 69 69 68 67 66 64 64 64 66 68 69 70 71 72 72 72 71 73 74 74 75 75
70 71 71 73 72 71 71 71 71 71 71 72 70 69 70 71 72 72 72 71 70 70 68 67 67 64 64 64 64 66 68 69 70 71 72 71 71 73 72 73 74 74 74
71 71 71 71 71 70 70 70 70 69 70 71 70 70 69 68 68 69 70 70 69 69 68 66 65 64 64 66 69 70 69 69 69 69 70 70 71 71 72 72 72 71 74
71 71 70 69 68 69 66 66 67 67 69 70 70 68 66 66 67 64 67 70 69 68 68 68 66 64 65 67 66 65 65 68 68 66 68 70 70 71 71 72 71 71 72
70 71 69 68 67 66 66 66 66 68 69 71 71 70 69 68 67 66 69 69 69 68 67 67 68 66 67 68 64 62 59 62 66 68 68 70 70 71 71 71 72 71 71
72 70 69 68 67 66 65 69 69 69 69 67 68 68 69 70 70 69 68 68 68 68 67 67 67 66 64 66 66 63 61 60 62 65 67 69 70 69 70 70 71 72 71
71 70 70 69 68 66 67 66 68 67 66 67 68 68 68 68 68 69 69 68 68 68 67 67 68 67 66 64 66 68 67 65 62 61 64 66 68 68 69 69 70 71 71
72 70 70 69 68 69 67 65 66 67 68 68 67 66 67 68 69 69 69 68 68 68 68 67 67 67 66 65 64 65 66 66 65 63 61 63 66 68 69 68 70 70 70
71 69 69 68 68 68 67 67 68 67 66 66 66 66 66 67 67 68 69 68 68 68 67 68 68 67 66 66 66 66 65 64 63 64 62 62 61 63 66 67 68 68 69

GFSSE_sfc_dewp_033.txt.gz
Dewpoint
74 76 78 78 77 77 77 76 76 76 76 77 77 77 77 76 76 76 76 75 75 75 74 74 74 74 74 73 74 74 73 73 73 72 72 73 72 72 72 73 73 70 73
75 77 79 78 78 77 77 77 76 76 75 76 76 76 76 76 75 75 75 75 75 74 74 74 74 74 74 73 73 73 72 73 73 73 73 73 73 73 72 72 73 71 73
75 77 78 79 79 78 77 77 76 76 75 75 76 76 76 76 75 75 75 75 74 74 74 74 74 74 74 73 73 73 73 73 73 73 73 72 71 72 71 72 72 71 71
75 77 77 78 79 78 77 77 77 76 76 76 76 75 75 75 75 75 75 75 75 74 74 74 74 74 74 74 74 74 73 73 73 73 72 71 70 72 70 70 72 71 71
75 77 77 79 79 77 77 77 77 76 76 76 76 75 75 75 75 75 75 75 74 75 74 74 74 74 74 74 74 74 74 74 73 72 70 71 71 71 72 70 72 72 73
76 77 78 79 78 77 77 77 77 77 76 76 76 75 75 75 75 75 74 74 74 74 74 74 74 73 74 75 74 74 73 74 73 71 70 72 71 72 72 71 71 71 72
75 77 77 79 79 78 77 77 77 77 76 76 76 75 75 75 75 75 74 74 74 73 74 74 74 73 73 75 75 74 73 73 71 72 71 71 69 74 72 72 71 73 72
76 76 77 78 78 78 77 77 77 76 76 76 76 75 75 76 75 75 74 74 74 73 74 73 74 74 73 75 75 74 73 73 72 72 71 70 71 74 72 73 72 71 71
76 76 76 77 76 77 77 77 77 77 76 76 75 75 75 75 75 75 74 74 73 73 73 74 74 73 74 74 74 73 73 72 71 71 69 71 73 74 73 73 73 72 72
75 76 76 76 75 76 76 77 77 77 76 75 76 76 76 75 75 74 76 75 74 73 72 72 74 74 74 75 74 74 73 71 71 71 70 71 74 74 73 73 73 71 71
74 74 75 74 75 75 75 76 77 76 75 75 75 75 75 74 74 75 75 75 74 74 73 73 73 74 74 74 75 74 73 73 71 71 71 73 74 74 73 73 74 73 72
71 73 73 74 74 74 75 74 75 74 73 74 75 74 74 73 74 75 75 75 74 74 73 73 73 74 74 73 73 74 73 72 71 70 71 73 74 74 75 74 74 73 73
70 71 73 73 73 74 74 74 74 74 74 74 74 73 73 73 73 74 74 73 73 75 72 73 73 74 73 72 72 72 72 72 70 70 72 73 74 74 74 74 74 73 72
69 70 72 72 73 73 74 74 74 74 74 73 74 73 73 73 72 70 72 72 71 72 72 72 72 73 71 71 71 70 71 71 71 71 71 72 74 74 74 74 74 74 73
69 70 71 72 72 73 73 74 74 74 73 73 72 73 72 70 69 69 71 71 71 72 71 70 70 71 69 69 70 70 70 71 71 71 72 73 75 74 74 74 75 74 73
69 70 71 72 73 73 72 72 72 71 71 71 71 72 72 70 69 70 69 69 69 69 70 69 69 69 68 67 67 68 68 68 69 71 71 72 74 74 74 74 75 75 74
69 70 72 73 73 73 72 71 70 69 69 69 70 69 68 68 70 70 69 67 68 68 69 68 68 67 66 66 66 68 67 67 68 70 71 71 72 74 74 74 75 75 76
69 71 72 73 73 71 71 71 71 71 70 69 69 69 68 67 66 70 71 69 69 68 68 68 67 66 65 64 64 65 66 67 67 69 71 71 71 71 73 74 73 74 75
69 71 72 72 72 72 71 70 69 71 70 71 70 69 68 69 70 70 70 70 70 69 68 67 67 66 64 63 63 64 65 66 67 69 70 71 71 72 71 72 74 73 74
70 71 72 70 71 70 69 69 69 69 70 71 70 69 69 70 71 70 70 70 69 69 68 67 66 66 65 64 65 67 67 67 68 69 69 70 71 71 72 71 71 71 73
71 70 71 69 68 68 67 66 67 67 68 69 69 68 67 66 66 66 65 68 68 68 68 67 65 64 63 65 64 63 64 66 68 67 67 69 69 71 71 71 71 71 72
70 69 68 67 67 66 66 66 66 67 69 70 70 70 68 68 66 65 66 68 68 68 67 67 67 66 64 66 63 62 61 61 64 67 67 68 68 70 70 71 71 71 71
70 69 68 67 66 65 65 69 68 68 68 67 67 68 68 69 69 68 68 67 67 67 66 66 66 66 64 67 65 62 59 59 62 64 66 67 68 69 69 70 71 71 71
70 69 67 67 66 64 67 67 67 66 65 66 67 67 67 68 68 69 68 68 67 67 66 66 67 66 64 63 66 66 64 64 61 60 63 64 67 68 68 68 69 70 70
70 69 68 67 66 67 67 65 66 66 67 67 66 66 66 67 68 68 68 68 67 67 67 67 66 66 65 64 64 63 64 65 66 62 60 62 64 66 68 68 68 69 70
70 69 68 67 66 67 66 67 67 66 66 65 65 66 66 66 66 66 68 68 67 67 67 66 67 66 66 65 64 64 64 63 64 62 61 62 62 64 66 67 67 69 69

GFSSE_sfc_dewp_036.txt.gz
Dewpoint
73 76 78 77 77 76 76 76 76 77 77 77 77 77 76 76 75 75 75 75 75 74 74 74 73 74 74 74 73 73 73 73 72 72 72 73 73 71 71 72 71 68 72
74 76 78 78 77 76 76 76 76 77 76 77 77 77 76 76 76 75 75 74 74 74 74 74 73 74 74 74 74 73 73 73 72 71 72 72 71 72 72 72 72 70 72
75 77 77 78 78 76 76 76 76 76 75 76 77 77 76 77 76 75 75 74 74 74 74 74 74 74 73 73 73 72 73 73 74 73 73 72 72 72 71 72 72 72 72
76 77 77 78 78 77 77 76 76 75 75 75 75 76 76 75 75 74 74 74 74 74 74 74 74 74 73 74 73 74 73 74 73 73 72 71 69 71 71 72 72 71 71
76 77 77 79 78 77 77 77 77 76 76 75 75 75 75 75 75 75 75 75 74 74 74 74 74 74 74 74 74 73 73 73 73 72 72 72 72 70 70 72 71 71 70
76 77 78 79 77 77 77 77 76 76 76 76 75 75 75 75 75 75 74 74 74 74 74 74 74 74 74 74 74 74 74 73 73 71 72 72 72 72 70 73 73 73 71
76 77 77 79 78 77 77 76 76 76 76 75 75 75 75 75 75 75 74 74 74 74 74 74 74 73 74 74 73 73 73 73 71 72 71 73 72 73 71 71 71 72 71
76 77 77 78 78 77 77 76 76 76 76 75 75 75 75 75 75 75 74 74 74 73 74 73 73 73 74 74 73 73 73 73 72 71 71 72 72 73 72 71 73 73 71
76 76 76 76 76 77 77 76 76 76 76 76 75 75 75 75 75 75 75 74 73 73 73 73 73 73 73 75 74 74 73 72 72 72 70 71 73 73 72 73 72 72 72
75 76 76 76 75 76 75 77 76 76 76 75 75 75 75 75 75 74 76 75 74 73 71 72 73 73 74 74 74 73 72 72 72 71 71 71 73 73 72 73 73 72 72
74 74 75 75 75 75 76 76 77 76 75 75 75 75 75 75 75 75 75 74 74 73 73 72 73 73 73 75 74 73 72 73 71 71 72 72 74 73 73 74 73 72 72
71 73 74 74 74 74 75 75 75 75 74 74 75 75 75 75 75 75 76 74 74 73 73 73 73 73 73 73 74 75 74 72 71 71 73 73 74 73 73 73 74 73 72
72 73 73 73 74 74 75 74 74 74 74 74 75 75 74 74 74 74 73 74 74 74 73 74 74 74 73 73 73 73 73 72 71 71 72 73 74 73 73 74 74 73 73
70 72 73 73 73 73 74 73 74 74 74 74 74 73 73 72 73 73 72 73 73 74 73 73 74 74 73 73 72 72 72 72 72 71 71 73 74 74 74 74 74 73 73
69 70 71 73 73 73 73 73 73 72 73 73 73 73 73 72 72 70 71 72 73 72 73 73 73 73 72 72 72 71 71 72 72 72 72 72 73 74 75 73 73 73 73
69 69 70 72 72 73 72 72 72 72 72 73 72 73 73 71 70 70 71 71 71 72 72 72 71 72 72 70 69 70 70 70 71 72 71 73 74 74 74 74 73 74 74
69 69 71 72 73 72 72 72 72 71 71 70 71 71 71 72 71 71 71 70 70 69 71 71 70 70 70 69 68 68 69 69 69 69 71 72 72 73 74 74 74 74 75
70 70 72 72 72 72 72 71 71 70 70 69 69 70 70 69 68 68 70 71 70 70 69 69 69 68 68 68 67 67 68 67 68 68 70 72 72 71 73 74 73 73 74
70 71 72 72 72 72 71 71 71 71 71 71 71 70 70 70 70 70 70 71 72 71 70 69 68 68 67 66 65 66 66 66 66 66 69 70 71 73 72 72 73 73 74
70 71 72 71 71 70 70 70 69 70 70 71 70 70 70 70 71 71 71 71 71 70 70 69 68 68 67 66 65 66 66 65 67 68 67 69 71 72 73 73 73 72 73
71 71 71 70 68 68 67 67 67 67 68 70 70 70 68 68 67 68 68 69 70 70 70 69 68 67 66 66 66 65 66 67 68 68 69 69 70 72 72 73 73 73 73
70 70 69 68 67 67 66 66 67 68 68 70 70 71 70 70 69 67 67 69 69 69 69 69 68 67 66 66 65 64 64 65 65 67 69 69 69 71 71 72 72 73 73
69 69 68 68 66 65 66 68 68 67 68 68 68 68 69 70 70 69 69 69 69 68 68 68 68 67 65 67 66 65 62 61 64 65 67 69 69 70 71 71 72 72 72
68 68 68 67 65 65 68 67 67 66 66 67 68 68 68 69 69 70 69 69 69 69 68 68 68 68 67 65 67 67 67 65 61 59 66 66 69 69 70 71 71 71 72
64 68 67 66 65 66 67 68 68 67 67 67 67 67 68 68 68 68 69 69 68 69 69 68 68 68 67 66 66 66 67 67 67 65 62 64 66 68 68 68 70 71 72
63 67 68 66 65 67 66 68 68 67 66 66 66 66 66 66 67 67 68 68 69 69 69 68 68 68 68 67 67 67 66 66 65 64 63 63 63 66 68 69 69 70 70

GFSSE_sfc_dewp_042.txt.gz
Dewpoint
65 70 78 77 76 77 77 77 78 78 77 77 77 76 76 76 75 75 76 73 74 75 74 73 73 73 73 73 73 74 73 73 72 72 72 72 72 72 71 71 70 65 70
66 69 78 77 77 77 77 77 78 77 77 77 76 76 75 75 75 75 75 73 73 73 73 73 74 74 74 74 74 73 73 72 72 73 73 71 72 72 70 69 70 69 70
66 70 73 78 77 76 77 77 77 77 76 77 77 76 75 75 74 73 74 74 71 69 72 73 74 74 74 74 73 73 72 72 72 73 71 67 68 72 72 70 72 72 72
66 68 70 78 77 76 77 76 77 76 76 76 77 76 75 75 74 73 73 73 73 72 72 73 74 74 73 73 73 73 72 73 73 72 68 61 64 72 72 72 72 72 71
67 67 74 77 77 76 76 76 77 76 76 75 75 75 74 74 74 74 73 73 72 73 71 71 74 74 73 73 74 73 73 73 73 72 70 66 63 70 72 72 73 71 69
67 67 76 78 77 76 76 76 76 76 76 76 75 75 75 75 74 74 74 74 73 73 74 73 73 74 74 74 74 74 74 74 73 65 68 68 67 71 71 70 69 69 72
68 69 73 78 77 76 76 76 76 76 75 75 75 75 75 75 74 74 74 74 74 73 74 74 73 72 74 74 73 73 74 73 67 65 65 65 68 71 71 71 70 69 71
68 68 72 77 77 76 76 76 76 76 75 75 75 75 75 75 74 74 74 74 73 73 73 74 74 74 74 74 74 74 74 72 67 65 67 66 73 72 70 72 72 72 71
69 70 72 73 76 77 76 76 76 76 75 75 75 75 75 75 75 74 74 73 73 73 72 73 73 74 74 75 74 74 74 73 68 66 66 66 73 72 71 70 71 72 70
70 70 71 73 74 74 74 76 76 75 75 75 75 75 75 75 74 74 74 74 74 73 72 72 73 73 75 76 74 73 72 72 68 67 68 68 74 73 72 72 72 73 72
70 70 72 73 73 75 73 74 76 75 75 75 75 74 75 71 71 72 73 74 74 73 71 72 73 74 74 74 74 73 73 68 68 67 72 74 74 72 73 73 73 72 71
69 70 71 71 72 73 70 74 73 73 73 71 71 73 71 70 70 69 71 73 73 74 73 73 73 73 73 68 70 72 68 66 67 70 71 74 73 72 73 74 74 73 72
69 69 72 72 72 71 70 70 76 70 70 73 74 76 76 74 72 70 74 72 75 74 70 70 71 68 68 70 69 67 65 66 65 66 69 74 74 73 73 74 74 74 73
68 70 71 72 73 72 71 70 70 68 70 74 75 76 78 78 76 76 76 71 76 77 74 70 66 68 70 70 68 69 68 66 64 63 68 74 74 74 73 73 74 74 74
68 70 72 73 74 74 74 76 77 75 72 73 75 73 74 75 74 72 74 73 74 77 73 73 73 70 71 71 70 69 68 68 67 66 65 73 74 75 74 74 74 74 75
69 71 72 73 74 74 76 75 72 72 73 73 73 72 72 73 73 72 71 71 68 73 78 77 74 70 69 69 70 70 71 69 68 68 66 68 74 75 74 74 75 75 74
69 71 73 72 74 75 75 73 74 72 72 72 72 72 72 72 73 75 76 71 67 70 75 76 74 73 71 69 70 71 69 70 68 70 69 68 69 74 74 75 75 75 74
71 72 72 69 69 71 73 73 76 75 73 74 72 72 72 72 74 74 70 72 71 76 79 77 72 76 74 70 73 71 68 68 69 69 69 69 67 67 72 75 75 74 74
72 74 71 70 70 71 72 75 72 73 73 73 72 72 71 72 73 76 75 71 74 69 71 69 68 73 72 70 68 68 68 68 68 66 68 69 70 69 68 74 74 74 74
73 72 66 70 71 71 72 75 75 73 72 70 74 73 72 73 73 73 74 72 72 73 76 74 72 70 68 67 67 67 67 67 67 65 65 66 68 69 68 70 70 70 74
70 65 64 63 73 72 73 74 73 69 70 72 71 72 73 71 71 73 75 71 71 71 70 71 70 71 72 71 71 65 65 67 68 65 65 63 64 65 67 68 77 70 69
68 70 70 71 74 75 71 71 68 69 70 71 72 72 74 71 72 72 72 71 72 72 72 72 72 72 70 72 67 66 64 63 64 65 65 65 66 65 66 70 73 73 74
68 70 72 73 74 73 70 68 68 69 68 68 70 71 72 71 71 72 71 72 72 71 66 71 71 71 65 68 70 68 66 57 68 65 67 66 69 68 68 68 70 71 73
68 70 71 72 73 71 72 70 70 65 66 69 70 73 70 71 70 70 71 70 71 68 71 70 70 72 72 70 69 68 70 70 68 68 68 68 70 70 71 70 70 72 73
67 70 71 73 72 71 72 71 70 69 72 70 69 71 72 71 69 68 70 70 71 75 73 73 72 73 73 72 71 69 68 69 71 70 67 63 67 69 70 71 71 72 72
65 69 70 72 71 72 71 72 72 72 70 68 69 67 66 66 66 69 70 71 71 73 72 72 72 71 71 70 68 69 70 67 65 70 69 68 67 67 68 69 70 72 72

GFSSE_sfc_dewp_045.txt.gz
Dewpoint
64 70 78 76 75 76 77 78 77 76 76 75 75 75 76 75 75 72 74 74 74 74 73 73 73 73 72 73 73 73 73 73 72 72 72 73 72 72 71 71 72 61 72
65 69 78 78 76 76 76 77 77 77 75 75 76 75 75 75 75 74 71 73 73 73 73 73 73 74 74 74 74 73 73 72 73 73 71 73 72 70 71 70 71 70 72
65 69 72 78 77 76 76 76 76 77 75 75 75 74 75 74 74 74 73 71 69 69 72 73 74 74 73 73 73 73 72 72 73 73 71 66 69 71 71 72 73 72 70
65 67 69 78 78 77 76 76 76 76 76 76 75 74 74 74 73 73 73 72 70 71 71 73 73 74 74 73 73 72 72 72 72 72 69 65 65 72 72 72 73 72 72
65 67 73 77 77 77 76 76 76 76 76 76 75 74 73 73 73 73 73 72 73 73 70 72 73 73 73 72 74 73 73 73 72 71 67 66 64 71 73 73 72 70 68
67 70 76 77 76 76 76 76 76 75 75 75 75 75 74 73 73 73 73 72 72 73 73 71 72 73 73 73 74 74 74 73 73 71 70 66 69 73 72 71 70 70 72
70 71 73 78 77 76 76 76 75 75 75 75 75 74 74 74 73 73 73 73 73 73 73 74 72 73 74 74 73 74 74 74 71 62 66 64 69 73 72 69 71 68 72
66 68 73 77 77 76 76 76 76 75 75 75 75 75 74 74 73 73 73 73 73 73 73 74 73 72 74 74 73 74 74 73 68 62 63 65 73 71 72 72 72 70 72
66 71 72 73 76 76 76 76 76 76 75 75 74 75 74 73 74 74 73 73 73 72 72 73 73 73 73 74 74 74 74 72 70 67 64 68 75 72 71 72 72 72 71
66 71 71 73 75 75 73 76 76 75 75 76 75 75 75 74 74 74 74 74 73 72 72 72 73 73 74 75 74 74 73 73 69 67 65 68 74 72 72 71 73 73 70
66 67 72 73 74 74 75 74 75 74 75 75 74 74 74 70 72 72 73 73 73 73 71 72 72 73 74 75 74 73 73 68 67 68 70 74 75 72 73 72 73 73 72
66 66 70 71 72 73 69 75 72 72 70 71 72 73 71 72 74 74 73 73 73 73 73 72 73 73 73 69 71 72 69 67 67 71 72 75 75 72 73 74 73 73 72
66 65 69 72 74 72 72 71 69 69 69 70 74 74 74 75 74 69 75 69 70 73 70 72 71 69 68 70 71 68 66 66 67 66 71 75 75 73 73 74 74 74 73
65 66 70 71 73 74 75 68 70 71 75 75 71 75 75 77 77 75 76 75 75 75 75 73 71 70 70 71 71 71 69 69 67 68 74 75 75 74 73 73 75 75 74
66 68 73 72 74 73 75 76 77 74 73 73 73 72 72 75 75 74 73 74 73 77 74 75 73 72 71 70 69 69 69 71 68 68 72 75 75 75 74 74 74 75 75
67 71 71 72 74 75 78 75 74 72 73 73 73 72 72 73 73 72 72 71 71 72 74 75 77 71 71 71 68 69 71 70 70 71 66 73 76 75 75 74 75 75 74
68 70 71 73 73 76 75 73 72 73 70 71 72 72 72 73 73 73 70 68 72 74 75 75 76 76 73 71 72 72 72 71 67 72 71 72 72 75 75 75 75 75 75
71 67 73 74 69 71 74 77 77 73 71 74 73 72 72 72 72 73 74 70 70 71 73 76 77 72 75 73 75 69 71 71 73 72 70 68 73 69 73 75 75 75 75
72 68 72 72 70 70 74 75 76 74 75 73 73 72 72 71 72 74 71 70 74 70 78 74 71 73 72 72 72 74 70 70 71 67 69 69 71 70 70 73 74 75 75
72 74 73 71 70 68 71 76 73 71 71 71 73 72 73 72 71 76 74 75 74 76 77 70 74 75 70 70 68 65 70 70 69 69 66 65 69 70 68 70 74 71 75
67 67 68 65 66 70 71 74 72 70 69 70 71 72 71 73 74 75 77 76 76 76 73 73 71 72 67 68 68 66 68 69 68 68 67 63 65 69 68 68 70 70 72
68 66 70 68 71 73 74 72 70 68 69 71 72 73 72 73 72 72 73 74 72 73 73 72 72 71 71 72 69 72 66 64 66 65 67 65 63 64 65 68 70 74 75
68 68 73 71 74 75 72 70 69 69 69 69 71 72 72 72 70 70 71 70 72 72 65 74 72 72 72 73 72 69 66 67 67 66 69 70 71 70 65 69 72 71 75
67 71 73 74 75 72 71 70 70 65 66 73 72 73 74 70 69 68 70 70 71 69 73 70 75 73 73 70 73 73 68 70 69 68 72 73 72 70 72 72 73 73 73
68 68 69 74 74 72 72 71 69 72 72 70 71 71 74 72 68 68 70 73 72 74 74 73 73 73 74 72 72 72 71 68 67 70 66 69 68 69 70 71 72 73 73
66 68 70 73 73 72 71 72 71 70 71 71 73 72 70 66 67 70 70 71 72 72 73 74 73 72 73 73 73 69 67 71 70 67 69 67 67 67 68 69 69 69 70